www.pogodaiklimat.ru

Погода и климат >> Архив погоды >> Антарктида >> Casey


ПОГОДА в Casey

  • Прогноз погоды в Casey
  • Монитор погоды в Casey
  • Климат города

АРХИВ ПОГОДЫ в Casey

Время (UTC), дата Ветер
(напр.,м/с)
 
Видим.   Явления Облачность Т
(С)
Тd
(С)
f
(%)
Тe
(С)
Тes
(С)
Комфортность P
(гПа)
Po
(гПа)
Тmin
(С)
Tmax
(С)
R
(мм)
R24
(мм)
S
(см)
00 14.05 Ю 6 30 км 1/1 1000 м
[Sc Ac trans Ci fib]
-28.6 -32.5 69 -42 -42 опасность
обморожения
988.0 982.5
03 14.05 Ю 6 30 км 1/0
[Ac trans Ci fib]
-27.9 -31.9 69 -41 -41 опасность
обморожения
988.6 983.1 -30.1
06 14.05 С 7 30 км 9/5 1000 м
[Sc Ac trans]
-22.2 -26.0 71 -35 -35 опасность
обморожения
990.1 984.6
09 14.05 С 7 3000 м слабый снег 10/10 300 м
[Sc]
-18.4 -20.8 81 -30 -30 990.6 985.1
12 14.05 СВ 3 4000 м слабый снег 10/10 100 м
[Sc]
-18.4 -20.7 82 -25 -25 991.7 986.2
15 14.05 Ю 5 22 км {снег} 10/10 300 м
[Sc]
-18.5 -21.2 79 -28 -28 991.2 985.7 -18.1
18 14.05 Ю 5 н/о н/о -19.1 -21.0 85 -29 -29 988.5 983.0
21 14.05 Ю 6 н/о н/о -20.2 -22.3 83 -31 -31 опасность
обморожения
984.1 978.6
00 15.05 Ю 6 26 км 9/9 300 м
[Sc Ci fib]
-18.0 -20.3 82 -29 -29 979.6 974.1
03 15.05 Ю 6 20 км позёмок {снег} 10/9 300 м
[Sc Cs]
-14.8 -17.8 78 -24 -24 978.2 972.8 -28.8
06 15.05 Ю 9 19 км позёмок 10/8 300 м
[Sc Cs]
-14.3 -17.0 80 -26 -26 978.6 973.2
09 15.05 Ю 8 22 км 9/3 300 м
[Sc Ac trans Ci fib]
-18.8 -21.7 78 -31 -31 опасность
обморожения
980.5 975.0
12 15.05 Ю 7 24 км 8/1 300 м
[St Ac trans Cs]
-20.3 -23.1 78 -32 -32 опасность
обморожения
982.9 977.4
15 15.05 Ю 6 24 км 8/1 300 м
[Sc Ac trans Ci sp]
-22.2 -25.1 77 -33 -33 опасность
обморожения
985.1 979.6 -5.9
18 15.05 Ю 2 н/о н/о -21.0 -23.5 80 -26 -26 988.1 982.6
21 15.05 С 3 н/о н/о -20.0 -22.0 84 -28 -28 990.0 984.5
00 16.05 СВ 3 30 км 1/1 100 м
[St Ac trans]
-20.5 -23.2 79 -28 -28 990.7 985.2
03 16.05 СВ 5 30 км 8/4 1000 м
[Sc Ac trans]
-21.5 -25.0 73 -31 -31 опасность
обморожения
991.2 985.7 -23.3
06 16.05 С 5 30 км 9/9 1500 м
[Sc]
-17.9 -22.0 70 -27 -27 990.7 985.2
09 16.05 СВ 3 30 км 9/9 1500 м
[Sc]
-18.3 -23.9 61 -25 -25 991.0 985.5
12 16.05 Ю 6 30 км 6/3 600 м
[St Ac trans]
-21.4 -26.2 65 -32 -32 опасность
обморожения
991.3 985.8
15 16.05 Ю 5 30 км 9/1 600 м
[St Ac trans]
-17.4 -24.0 56 -26 -26 991.5 986.0 -17.7
18 16.05 Ю 6 н/о н/о -18.9 -23.5 67 -29 -29 991.0 985.5
21 16.05 Ю 5 н/о н/о -20.6 -23.4 78 -30 -30 991.2 985.7
00 17.05 Ю 7 20 км 9/9 600 м
[Sc]
-20.8 -23.5 79 -33 -33 опасность
обморожения
990.7 985.2
03 17.05 Ю 8 15 км 9/8 600 м
[Sc As trans]
-20.5 -23.3 78 -33 -33 опасность
обморожения
990.3 984.8 -22.3
06 17.05 Ю 8 10 км 9/5 600 м
[St As trans]
-19.8 -22.6 78 -32 -32 опасность
обморожения
990.1 984.6
09 17.05 Ю 6 15 км 9/4 600 м
[Sc As trans]
-19.2 -22.0 78 -30 -30 990.6 985.1
12 17.05 Ю 7 15 км 6/6 1000 м
[Sc]
-19.3 -22.4 76 -31 -31 опасность
обморожения
992.0 986.5
15 17.05 Ю 6 15 км 4/4 1000 м
[Sc]
-19.0 -22.4 74 -29 -29 993.4 987.9 -17.2
18 17.05 Ю 6 н/о н/о -20.2 -23.9 72 -31 -31 опасность
обморожения
994.8 989.3
21 17.05 Ю 5 н/о н/о -19.6 -24.3 66 -29 -29 995.7 990.2
00 18.05 Ю 5 27 км 8/5 300 м
[Sc Ac trans Ci fib]
-19.7 -24.4 66 -29 -29 996.4 990.9
03 18.05 Ю 5 27 км 10/9 300 м
[Sc As op]
-17.3 -22.3 65 -26 -26 996.9 991.3 -21.6
06 18.05 Ю 6 3700 м слабый снег 10/10 300 м
[Sc]
-16.8 -20.5 73 -27 -27 997.8 992.2
09 18.05 Ю 5 3200 м слабый снег 10/10 300 м
[Sc]
-16.0 -18.2 83 -25 -25 999.1 993.5
12 18.05 С 3 2000 м слабый снег 10/10 600 м
[Sc]
-13.3 -15.0 87 -20 -20 1001.3 995.7
15 18.05 штиль 0 2800 м слабый снег 10/10 100 м
[Sc]
-13.6 -15.4 86 -14 -14 1002.7 997.1 -12.1
18 18.05 ЮВ 2 н/о н/о -14.1 -16.1 85 -18 -18 1003.4 997.8
21 18.05 С 3 н/о н/о -14.0 -15.7 87 -21 -21 1003.9 998.3
00 19.05 Ю 2 3000 м слабый снег 10/10 1000 м
[Sc]
-14.9 -16.8 85 -20 -20 1003.4 997.8
03 19.05 Ю 3 3000 м слабый снег 10/10 1000 м
[Sc]
-15.4 -17.3 85 -21 -21 1002.8 997.2 -19.7
06 19.05 Ю 4 6000 м слабый снег 10/10 1000 м
[Sc]
-16.1 -18.2 84 -24 -24 1001.1 995.5
09 19.05 штиль 0 6000 м слабый снег 10/10 1000 м
[Sc]
-16.1 -18.0 85 -16 -16 999.5 993.9
12 19.05 штиль 0 10 км слабый снег 10/10 300 м
[Sc]
-16.0 -18.5 81 -16 -16 996.2 990.7
15 19.05 Ю 2 4000 м слабый снег 10/10 300 м
[Sc]
-15.6 -17.8 83 -20 -20 992.9 987.4 -12.4
18 19.05 Ю 6 н/о н/о -15.9 -17.8 85 -25 -25 989.6 984.1
21 19.05 Ю 9 н/о н/о -14.3 -16.1 86 -26 -26 986.0 980.5
00 20.05 Ю 7 3000 м слабый снег 10/10 600 м
[Sc]
-12.2 -14.5 83 -21 -21 982.5 977.0
03 20.05 Ю 7 10 км слабый снег 10/10 1000 м
[Sc]
-11.3 -14.8 75 -21 -21 980.2 974.7 -16.3
06 20.05 Ю 6 2000 м слабый снег 10/10 600 м
[Sc]
-12.8 -15.4 81 -22 -22 979.8 974.3
09 20.05 ЮВ 8 15 км слабый снег 10/10 600 м
[Sc]
-13.2 -16.2 78 -23 -23 979.9 974.4
12 20.05 Ю 3 25 км 9/9 1500 м
[Sc]
-13.6 -17.5 72 -20 -20 980.4 974.9
15 20.05 В 2 25 км 4/4 1500 м
[Sc]
-14.9 -19.0 71 -19 -19 981.2 975.7 -7.2
18 20.05 Ю 4 н/о н/о -16.4 -20.1 73 -24 -24 982.6 977.1

 

Местоположение метеостанции Casey (Антарктида): широта -66.28 долгота 110.51 высота над уровнем моря 41 м.

В архиве по умолчанию представлена погода в Casey за последнюю неделю. Архивные данные за месяц целиком и за предыдущие месяцы, начиная с января 2011 года, Вы можете получить, выбрав интересующий диапазон дат из раскрывающегося списка и нажав кнопку "Ввод!".


*Определитесь, кто Вы:
робот инопланетянин человек

Внимание! Время в таблицах - всемирное. Для получения местного времени необходимо прибавить поправку, которая в Casey равна 0 ч.

Смотрите также архив погоды в соседних городах и на ближайших метеорологических станциях:

Погода в Casey Skiway South (Антарктида) (12 км)
Погода в Casey (Peterson air) (Антарктида) (46 км)
Погода в Wilkins Runway East (Антарктида) (63 км)
Погода в Casey Snyder Rocks (Антарктида) (126 км)
Погода в Oazic Bangera (Антарктида) (436 км)
Погода в Mirnyj (Антарктида) (776 км)
Погода в Dome C II (Антарктида) (1085 км)
Погода в Vostok (Антарктида) (1361 км)

Пояснения к столбцам:

Ветер - указаны скорость ветра в м/с - средняя за 10 мин, порывы в срок и между сроками (в фигурных скобках) и направление, откуда дует ветер: С - северный, СВ - северо-восточный, В - восточный, ЮВ - юго-восточный, Ю - южный, ЮЗ - юго-западный, З - западный, СЗ - северо-западный.
Видимость - горизонтальная дальность видимости в метрах или километрах. При видимости от 1 до 10 км при отсутствии осадков обычно наблюдается дымка, при ухудшении видимости до 1 км и менее - туман. В сухую погоду видимость может ухудшаться дымом, пылью или мглою.
Явления - указаны атмосферные явления, наблюдавшиеся в срок или в последний час перед сроком; фигурными скобками обозначены явления, наблюдавшиеся между сроками (за 1-3 часа до срока); квадратными скобками обозначены град или гололедные отложения с указанием их диаметра в мм.
Облачность - указаны через наклонную черту общая и нижняя облачность в баллах и высота нижней границы облаков в метрах; квадратными скобками обозначены формы облаков: Ci - перистые, Cs - перисто-слоистые, Cc - перисто-кучевые, Ac - высококучевые, As - высокослоистые, Sc - слоисто-кучевые, Ns - слоисто-дождевые, Cu - кучевые, Cb - кучево-дождевые. Подробнее классификацию облаков см. в Атласе облаков (PDF).
T - Температура воздуха - температура, измеренная на высоте 2 м над землей.
Td - Температура точки росы - температура, при понижении до которой содержащийся в воздухе водяной пар достигнет насыщения.
f - Относительная влажность воздуха - влажноcть воздуха, измеренная на высоте 2 м над землей.
Te - Эффективная температура - температура, которую ощущает одетый по сезону человек в тени. Характеристика душности погоды. При расчете учитывается влияние влажности воздуха и скорости ветра на теплоощущения человека.
Tes - Эффективная температура на солнце - температура, которую ощущает человек, с поправкой на солнечный нагрев. Характеристика знойности погоды. Зависит от высоты солнца над горизонтом, облачности и скорости ветра. Ночью, в пасмурную погоду, а также при ветре 12 м/с и более поправка равна нулю.
P - Атмосферное давление - приведенное к уровню моря атмосферное давление.
Po - Атмосферное давление - измеренное на уровне метеостанции атмосферное давление.
Tmin - Минимальная температура - минимум температуры воздуха на высоте 2 м над землей.
Tmax - Максимальная температура - максимум температуры воздуха на высоте 2 м над землей.
R - Количество осадков - Количество выпавших осадков за период времени, мм. При наведении курсора мыши на число - период времени, за который выпало указанное количество осадков.
R24 - Количество осадков - Количество выпавших осадков за 24 часа, мм.
S - Снежный покров - Высота снежного покрова, см. При наведении курсора мыши на число - состояние снежного покрова и степень покрытия местности в баллах.